Location: Bletchingley
(51.2333°N, 0.1000°W)
Time: 13:54:54
(UTC+00:00)

Meteor 1-15 Rocket - Pass Details

Date: 18 September 2020
Orbit: 840 x 907 km, 81.2° (Epoch: 25 October)

Event Time Altitude Azimuth Distance (km) Brightness Sun altitude
Rises 19:51:38 0° 177° (S) 3,396 7.1 -16.7°
Reaches altitude 10° 19:54:04 10° 173° (S) 2,472 6.3 -17.0°
Maximum altitude 19:59:32 58° 96° (E) 1,004 4.2 -17.8°
Drops below altitude 10° 20:05:09 10° 19° (NNE) 2,530 6.8 -18.6°
Sets 20:07:39 0° 16° (NNE) 3,483 7.6 -18.9°
